Voltar ao catálogo

STARLINK-34273

AtivoComunicaçõesVLEO
NORAD 64905·PAYLOAD·🇺🇸 United States

Lançado Jul 26, 2025 de Cape Canaveral Space Force Station

Loading…

Próximas Passagens (próximas 24 horas)

TLE

AtualizadoSource: CelesTrak SupGP

Época: Sep 15, 2026, 02:34 UTC

1 64905C 25157B   26258.10743056 -.00055189  00000+0 -16304-2 0  2586
2 64905  53.1579 182.6497 0001282  76.7311 136.0733 15.34420642    16

Acompanhe STARLINK-34273 em tempo real com AllMySat

Download on the App Store